Location: Lafig�re
(44.4503°N, 4.0357°E)
Time: 01:06:24
(UTC+00:00)

Transit 4A - Pass Details

Date: 29 January 2021
Orbit: 866 x 979 km, 66.8° (Epoch: 24 February)

Event Time Altitude Azimuth Distance (km) Brightness Sun altitude
Rises 18:24:35 0° 230° (SW) 3,666 12.0 -17.1°
Reaches altitude 10° 18:27:15 10° 236° (WSW) 2,724 11.3 -17.6°
Maximum altitude 18:33:24 47° 310° (NW) 1,273 8.9 -18.7°
Drops below altitude 10° 18:39:30 10° 23° (NNE) 2,712 10.0 -19.8°
Enters shadow 18:39:52 - 24° (NNE) 2,836 10.1 -19.8°
Sets 18:42:10 0° 30° (NNE) 3,649 - -20.2°
